• In India
  • List of Countries
  • For 7 days
  • Water Temperature
  • Satellite Maps
  • Weather Map
  • Weather Widgets
  • user-avatar
    Login

    Hourly Weather Sławno

    Today, 11 December, Monday

    Time Temperature Precipitation Wind Pressure Humidity
    00:00 -3°C° 0.1 mm 6 mps 737 mmHg 77%
    01:00 -4°C° 0 mm 6 mps 736 mmHg 81%
    02:00 -3°C° 0.1 mm 6 mps 736 mmHg 83%
    03:00 -3°C° 0.1 mm 6 mps 736 mmHg 86%
    04:00 -2°C° 0.1 mm 5 mps 735 mmHg 88%
    05:00 -1°C° 0.5 mm 5 mps 735 mmHg 88%
    06:00 0°C° 0.5 mm 5 mps 735 mmHg 88%
    07:00 0°C° 0 mm 4 mps 736 mmHg 90%
    08:00 +1°C° 0.2 mm 5 mps 736 mmHg 90%
    09:00 +1°C° 0.2 mm 5 mps 737 mmHg 90%
    10:00 +2°C° 0.2 mm 5 mps 738 mmHg 91%
    11:00 +2°C° 0 mm 5 mps 738 mmHg 89%
    12:00 +2°C° 0 mm 5 mps 738 mmHg 88%
    13:00 +2°C° 0 mm 5 mps 739 mmHg 87%
    14:00 +1°C° 0 mm 4 mps 739 mmHg 89%
    15:00 +1°C° 0 mm 4 mps 739 mmHg 91%
    16:00 +1°C° 0 mm 3 mps 739 mmHg 93%
    17:00 +1°C° 0 mm 3 mps 739 mmHg 93%
    18:00 +1°C° 0 mm 4 mps 739 mmHg 93%
    19:00 +1°C° 0 mm 4 mps 739 mmHg 92%
    20:00 +1°C° 0.2 mm 4 mps 738 mmHg 93%
    21:00 +1°C° 0.2 mm 4 mps 738 mmHg 93%
    22:00 +2°C° 0.2 mm 5 mps 737 mmHg 93%
    23:00 +2°C° 0.7 mm 5 mps 737 mmHg 94%

    Tomorrow, 12 December, Tuesday

    Time Temperature Precipitation Wind Pressure Humidity
    00:00 +2°C° 0.7 mm 5 mps 737 mmHg 94%
    01:00 +3°C° 0.7 mm 4 mps 737 mmHg 95%
    02:00 +2°C° 0.1 mm 5 mps 737 mmHg 95%
    03:00 +2°C° 0.1 mm 5 mps 737 mmHg 95%
    04:00 +2°C° 0.1 mm 6 mps 737 mmHg 95%
    05:00 +2°C° 0.2 mm 6 mps 737 mmHg 94%
    06:00 +3°C° 0.2 mm 6 mps 738 mmHg 93%
    07:00 +3°C° 0.2 mm 7 mps 738 mmHg 91%
    08:00 +3°C° 0 mm 7 mps 738 mmHg 88%
    09:00 +4°C° 0 mm 8 mps 739 mmHg 84%
    10:00 +4°C° 0 mm 8 mps 739 mmHg 80%
    11:00 +4°C° 0 mm 8 mps 740 mmHg 79%
    12:00 +3°C° 0 mm 9 mps 740 mmHg 79%
    13:00 +3°C° 0 mm 9 mps 740 mmHg 78%
    14:00 +3°C° 0.1 mm 9 mps 741 mmHg 80%
    15:00 +2°C° 0.1 mm 9 mps 742 mmHg 81%
    16:00 +2°C° 0.1 mm 10 mps 743 mmHg 83%
    17:00 +2°C° 0.6 mm 9 mps 744 mmHg 82%
    18:00 +1°C° 0.6 mm 9 mps 745 mmHg 82%
    19:00 +1°C° 0.6 mm 9 mps 746 mmHg 82%
    20:00 +1°C° 0.6 mm 9 mps 747 mmHg 81%
    21:00 0°C° 0.6 mm 9 mps 748 mmHg 80%
    22:00 0°C° 0.6 mm 9 mps 750 mmHg 79%
    23:00 0°C° 0.1 mm 9 mps 751 mmHg 79%

    Day after tomorrow, 13 December, Wednesday

    Time Temperature Precipitation Wind Pressure Humidity
    00:00 0°C° 0.1 mm 8 mps 752 mmHg 78%
    01:00 0°C° 0.1 mm 8 mps 753 mmHg 77%
    02:00 -1°C° 0 mm 8 mps 753 mmHg 80%
    03:00 -1°C° 0 mm 8 mps 754 mmHg 82%
    04:00 -1°C° 0 mm 8 mps 754 mmHg 85%
    05:00 -2°C° 0 mm 8 mps 755 mmHg 86%
    06:00 -2°C° 0 mm 8 mps 755 mmHg 87%
    07:00 -2°C° 0 mm 8 mps 755 mmHg 88%
    08:00 -2°C° 0 mm 8 mps 755 mmHg 87%
    09:00 -2°C° 0 mm 8 mps 755 mmHg 85%
    10:00 -2°C° 0 mm 8 mps 755 mmHg 83%
    11:00 -1°C° 0 mm 8 mps 754 mmHg 80%
    12:00 -1°C° 0 mm 9 mps 754 mmHg 77%
    13:00 -1°C° 0 mm 9 mps 753 mmHg 75%
    14:00 -1°C° 0 mm 9 mps 752 mmHg 74%
    15:00 -1°C° 0 mm 9 mps 752 mmHg 74%
    16:00 -3°C° 0 mm 9 mps 751 mmHg 73%
    17:00 -2°C° 0 mm 10 mps 750 mmHg 71%
    18:00 -2°C° 0 mm 10 mps 749 mmHg 70%
    19:00 -2°C° 0 mm 10 mps 749 mmHg 68%
    20:00 -2°C° 0.2 mm 11 mps 748 mmHg 70%
    21:00 -2°C° 0.2 mm 11 mps 747 mmHg 73%
    22:00 -2°C° 0.2 mm 11 mps 747 mmHg 75%
    23:00 -2°C° 0.3 mm 10 mps 746 mmHg 78%

    14 December, Thursday

    Time Temperature Precipitation Wind Pressure Humidity
    00:00 -2°C° 0.3 mm 10 mps 745 mmHg 81%
    01:00 -2°C° 0.3 mm 10 mps 745 mmHg 84%
    02:00 0°C° 0 mm 9 mps 744 mmHg 84%
    03:00 0°C° 0 mm 9 mps 743 mmHg 84%
    04:00 0°C° 0 mm 8 mps 743 mmHg 85%
    05:00 0°C° 0.5 mm 9 mps 742 mmHg 85%
    06:00 0°C° 0.5 mm 9 mps 741 mmHg 84%
    07:00 0°C° 0.5 mm 10 mps 740 mmHg 84%
    08:00 +1°C° 0.7 mm 9 mps 740 mmHg 86%
    09:00 +1°C° 0.7 mm 8 mps 740 mmHg 87%
    10:00 +2°C° 0.7 mm 8 mps 739 mmHg 89%
    11:00 +2°C° 0 mm 8 mps 739 mmHg 86%
    12:00 +3°C° 0 mm 7 mps 739 mmHg 84%
    13:00 +3°C° 0 mm 7 mps 739 mmHg 82%
    14:00 +2°C° 0.1 mm 8 mps 739 mmHg 81%
    15:00 +2°C° 0.1 mm 8 mps 739 mmHg 79%
    16:00 +1°C° 0.1 mm 8 mps 739 mmHg 78%
    17:00 +1°C° 0 mm 8 mps 739 mmHg 77%
    18:00 0°C° 0 mm 8 mps 740 mmHg 76%
    19:00 0°C° 0 mm 7 mps 740 mmHg 75%
    20:00 -1°C° 0 mm 7 mps 740 mmHg 76%
    21:00 -1°C° 0 mm 7 mps 739 mmHg 77%
    22:00 -1°C° 0 mm 7 mps 739 mmHg 78%
    23:00 -2°C° 0 mm 8 mps 739 mmHg 78%

    15 December, Friday

    Time Temperature Precipitation Wind Pressure Humidity
    00:00 -2°C° 0 mm 8 mps 739 mmHg 79%
    01:00 -3°C° 0 mm 9 mps 739 mmHg 79%
    02:00 -3°C° 0.2 mm 9 mps 739 mmHg 79%
    03:00 -3°C° 0.2 mm 10 mps 738 mmHg 79%
    04:00 -2°C° 0.2 mm 10 mps 738 mmHg 79%
    05:00 -2°C° 0.1 mm 10 mps 739 mmHg 80%
    06:00 -2°C° 0.1 mm 10 mps 739 mmHg 81%
    07:00 -2°C° 0.1 mm 10 mps 740 mmHg 82%
    08:00 -1°C° 0 mm 9 mps 741 mmHg 82%
    09:00 -1°C° 0 mm 9 mps 741 mmHg 83%
    10:00 -1°C° 0 mm 8 mps 742 mmHg 83%
    11:00 -1°C° 0 mm 8 mps 743 mmHg 82%
    12:00 -1°C° 0 mm 8 mps 743 mmHg 81%
    13:00 0°C° 0 mm 7 mps 743 mmHg 81%
    14:00 -1°C° 0 mm 7 mps 744 mmHg 82%
    15:00 -1°C° 0 mm 7 mps 744 mmHg 84%
    16:00 -2°C° 0 mm 7 mps 744 mmHg 86%
    17:00 -2°C° 0 mm 6 mps 744 mmHg 86%
    18:00 -2°C° 0 mm 6 mps 744 mmHg 87%
    19:00 -2°C° 0 mm 6 mps 744 mmHg 88%
    20:00 -2°C° 0.1 mm 6 mps 744 mmHg 87%
    21:00 -2°C° 0.1 mm 6 mps 744 mmHg 86%
    22:00 -2°C° 0.1 mm 6 mps 744 mmHg 85%
    23:00 -2°C° 0 mm 6 mps 744 mmHg 86%

    16 December, Saturday

    Time Temperature Precipitation Wind Pressure Humidity
    00:00 -2°C° 0 mm 6 mps 744 mmHg 88%
    01:00 -2°C° 0 mm 6 mps 744 mmHg 89%
    02:00 -1°C° 0.1 mm 5 mps 744 mmHg 89%
    03:00 -1°C° 0.1 mm 5 mps 744 mmHg 90%
    04:00 -1°C° 0.1 mm 5 mps 744 mmHg 90%
    05:00 -1°C° 0.1 mm 5 mps 744 mmHg 90%
    06:00 0°C° 0.1 mm 5 mps 744 mmHg 91%
    07:00 0°C° 0.1 mm 5 mps 744 mmHg 91%
    08:00 0°C° 0.1 mm 5 mps 745 mmHg 90%
    09:00 0°C° 0.1 mm 5 mps 745 mmHg 89%
    10:00 -1°C° 0.1 mm 6 mps 745 mmHg 87%
    11:00 -1°C° 0.1 mm 6 mps 746 mmHg 86%
    12:00 +1°C° 0.1 mm 6 mps 746 mmHg 85%
    13:00 0°C° 0.1 mm 7 mps 746 mmHg 83%
    14:00 0°C° 0.1 mm 7 mps 747 mmHg 83%
    15:00 +1°C° 0.1 mm 6 mps 747 mmHg 83%
    16:00 +1°C° 0.1 mm 6 mps 747 mmHg 84%
    17:00 +1°C° 0.2 mm 6 mps 748 mmHg 84%
    18:00 -1°C° 0.2 mm 6 mps 748 mmHg 85%
    19:00 -1°C° 0.2 mm 6 mps 749 mmHg 85%
    20:00 -1°C° 0.1 mm 6 mps 749 mmHg 86%
    21:00 -1°C° 0.1 mm 6 mps 749 mmHg 86%
    22:00 -1°C° 0.1 mm 6 mps 750 mmHg 87%
    23:00 -1°C° 0.1 mm 6 mps 750 mmHg 87%
    Show more